129  
AXUS43 KGID 220702  
MISGRI  
 
GID CWA HOURLY WEATHER ROUNDUP  
NATIONAL WEATHER SERVICE HASTINGS NE  
200 AM CDT FRI AUG 22 2014  
 
NOTE: "FAIR" INDICATES FEW OR NO CLOUDS BELOW 12,000 FEET WITH NO  
SIGNIFICANT WEATHER AND/OR OBSTRUCTIONS TO VISIBILITY.  
   
..SOUTH CENTRAL NEBRASKA
 
 
 
CITY SKY/WX TMP DP RH WIND PRES REMARKS  
GRAND ISLAND PTCLDY 71 68 90 NW6 29.91F  
HASTINGS PTCLDY 73 66 78 S7 29.90F  
KEARNEY CLEAR 72 68 88 NE3 29.94S  
ORD PTCLDY 69 66 90 NW8 29.92F  
YORK CLOUDY 72 N/A N/A SW5 29.89F  
AURORA MOCLDY 74 72 93 S5 29.90F  
LEXINGTON CLEAR 70 68 95 CALM 29.95R  
HOLDREGE CLEAR 71 67 88 SE6 29.93S  
HEBRON CLOUDY 72 66 83 CALM 29.87F  
   
..NEBRASKA PANHANDLE
 
 
 
CITY SKY/WX TMP DP RH WIND PRES REMARKS  
CHADRON PTCLDY 66 49 54 W5 29.99S  
ALLIANCE CLOUDY 70 52 52 SE9 30.03F  
SCOTTSBLUFF MOCLDY 66 53 63 NW5 30.04F  
SIDNEY CLOUDY 72 51 47 W13 30.10R  
   
..WESTERN AND NORTH CENTRAL NEBRASKA
 
 
 
CITY SKY/WX TMP DP RH WIND PRES REMARKS  
VALENTINE CLEAR 70 61 73 E6 29.97S  
AINSWORTH CLEAR 66 62 87 SE6 29.98S  
ONEILL CLEAR 67 65 90 N3 29.95S  
BROKEN BOW CLEAR 66 64 93 N5 29.96S  
IMPERIAL PTCLDY 71 64 78 E3 30.00S  
NORTH PLATTE CLEAR 64 61 90 CALM 29.98R  
MCCOOK CLEAR 71 67 87 NE5 29.95F  
   
..EASTERN NEBRASKA
 
 
 
CITY SKY/WX TMP DP RH WIND PRES REMARKS  
NORFOLK PTCLDY 73 71 93 W5 29.88F  
SO SIOUX CITY MOCLDY 77 74 90 N7 29.85F  
TEKAMAH CLOUDY 73 71 93 W5 29.86R  
COLUMBUS CLOUDY 48 N/A N/A CALM 29.89F  
ALBION PTCLDY 72 69 89 SE5 29.91F  
OMAHA EPPLEY CLOUDY 76 73 91 N7 29.86S  
OFFUTT AFB CLOUDY 76 76 100 N2 29.85F  
MILLARD CLOUDY 78 75 91 CALM 29.85F  
LINCOLN CLOUDY 77 73 87 NE3 29.87S  
NEBRASKA CITY CLOUDY 77 77 100 CALM 29.85S  
BEATRICE CLOUDY 75 73 92 SW6 29.85F  
FALLS CITY CLOUDY 82 72 71 S7 29.85F  
   
..NORTHERN KANSAS
 
 
 
CITY SKY/WX TMP DP RH WIND PRES REMARKS  
GOODLAND CLEAR 64 55 72 NE5 30.02S  
HILL CITY MOCLDY 73 67 81 N6 29.90F  
NORTON SUNNY 73 68 83 CALM 29.93R  
PHILLIPSBURG CLEAR 73 66 78 NE8 29.91S  
SMITH CENTER CLEAR 73 66 78 E7 29.90F  
HAYS PTCLDY 79 64 61 SE10 29.90F  
RUSSELL PTCLDY 81 65 58 SE10 29.88F  
CONCORDIA CLOUDY 75 71 87 S7 29.89R  
SALINA PTCLDY 84 71 65 S10 29.89F  
TOPEKA MOCLDY 85 73 67 VRB7 29.90R HX 91  
 
CLICK HERE TO GO TO PREVIOUS BULLETINS.

The Nexlab NE Page
The Nexlab KS Page Main Text Page